Regional Weather Roundup
Issued by NWS

Home | Current Version | Previous Version | Text Only | Print | Product List | Glossary Off
Versions: 1 2 3 4 5 6 7 8 9 10 11 12 13 14 15 16 17 18 19 20 21 22 23 24 25 26 27 28 29 30 31 32 33 34 35 36 37 38 39 40 41 42 43 44 45 46 47 48 49 50

000
ASUS43 KLOT 282110
RWRIL

ILLINOIS REGIONAL WEATHER ROUNDUP
NATIONAL WEATHER SERVICE CHICAGO/ROMEOVILLE IL
300 PM CST WED JAN 28 2015

NOTE: "FAIR" INDICATES FEW OR NO CLOUDS BELOW 12,000 FEET WITH NO
SIGNIFICANT WEATHER AND/OR OBSTRUCTIONS TO VISIBILITY.

* THESE STATIONS ARE NOT UNDER NWS QUALITY CONTROL. THEY ALSO MAY NOT
  REPORT WEATHER SUCH AS PRECIPITATION OR FOG.

ILZ001-002-007-009-015-016-024-282200-
NORTHWEST ILLINOIS

CITY           SKY/WX    TMP DP  RH WIND       PRES   REMARKS
MOLINE         MOSUNNY   36  28  73 SE16      29.94F WCI  26
STERLING*      CLOUDY    34  25  69 SE15G22   29.99F WCI  24
SAVANNA*       CLOUDY    35  25  67 SE15G24   29.96F WCI  25
$$

ILZ003-004-008-010-011-017-018-282200-
NORTH CENTRAL ILLINOIS

CITY           SKY/WX    TMP DP  RH WIND       PRES   REMARKS
ROCKFORD       CLOUDY    33  23  66 SE18G25   30.04F WCI  22
FREEPORT*      CLOUDY    32  25  74 SE20      30.01F WCI  20
ROCHELLE*      CLOUDY    32  26  78 SE16      30.03F WCI  21
DE KALB*       CLOUDY    32  24  72 SE21      30.04F WCI  19
PERU*          PTSUNNY   36  28  74 SE18G24   30.04F WCI  26
$$

ILZ005-006-012>014-019>023-282200-
NORTHEAST ILLINOIS

CITY           SKY/WX    TMP DP  RH WIND       PRES   REMARKS
CHICAGO-OHARE  CLOUDY    33  21  61 S16       30.09F WCI  23
CHICAGO-MIDWAY CLOUDY    35  20  54 SE15      30.11F WCI  25
AURORA         CLOUDY    34  23  64 SE17      30.07F WCI  23
LANSING*       PTSUNNY   33  23  65 S14       30.13F WCI  24
JOLIET*        PTSUNNY   33  23  68 SE15G21   30.10F WCI  22
WAUKEGAN       PTSUNNY   31  22  69 SE16      30.08F WCI  20
DUPAGE AIRPORT CLOUDY    33  21  61 SE13      30.07F WCI  24
KANKAKEE*      MOSUNNY   35  25  67 SE16G22   30.13F WCI  25
WHEELING       PTSUNNY   34  19  54 S13       30.10F WCI  25
MORRIS*        PTSUNNY   34  28  78 SE14      30.07F WCI  25
ROMEOVILLE*    CLOUDY    32  22  67 S16G25    30.09F WCI  22
NORTHERLY ISL    N/A     34  21  59 S9          N/A  WCI  27
$$

LMZ740>746-282200-
SOUTHERN LAKE MICHIGAN

STATION/POSITION SKY/WX   TEMP    WIND        PRES    VSBY  WAVE
                          AIR SEA DIR/SP/G                  HT/PER
                          (F)     (DEG/KT/KT) (MB)    (MI)  (FT/S)
WAUKEGAN HARBOR            32     150/ 20/ 23   N/A
HARRISON CRIB              32     160/ 17/ 21   N/A
BURNHAM HARBOR             34     150/ 13/ 17   N/A
CALUMET HARBOR             33     140/ 10/ 15   N/A
MICHIGAN CITY              31     130/ 16/ 21   N/A
$$

ILZ025>027-034>036-040-047-049-050-058-095>099-282200-
WEST-CENTRAL ILLINOIS

CITY           SKY/WX    TMP DP  RH WIND       PRES   REMARKS
QUINCY         MOSUNNY   45  32  60 SE16G23   29.91F
GALESBURG*     MOSUNNY   39  32  74 SE14G25   29.94F WCI  31
MACOMB*        MOSUNNY   42  34  74 S18       29.96F
JACKSONVILLE*  SUNNY     45  32  61 SE17G26   29.99F
PITTSFIELD*    SUNNY     46  34  63 SE16      29.96F
$$

ILZ028>032-037-038-041>044-048-051>054-059>061-282200-
CENTRAL ILLINOIS

CITY           SKY/WX    TMP DP  RH WIND       PRES   REMARKS
PONTIAC        PTSUNNY   36  30  80 SE17G24   30.08F WCI  25
BLOOMINGTON    PTSUNNY   39  32  76 S21G30    30.05F WCI  29
DECATUR        PTSUNNY   40  29  64 S22G29    30.06F
PEORIA         MOSUNNY   41  30  65 S18G24    30.01F
LACON*         PTSUNNY   37  29  71 SE16G22   30.02F WCI  28
LINCOLN*       MOSUNNY   41  32  69 S18G28    30.04F
SPRINGFIELD    SUNNY     42  31  64 SE21G30   30.02F
TAYLORVILLE    MOSUNNY   41  32  70 S20       30.04F
$$

ILZ033-039-045-046-055>057-062-063-282200-
EAST-CENTRAL ILLINOIS

CITY           SKY/WX    TMP DP  RH WIND       PRES   REMARKS
CHAMPAIGN      MOSUNNY   36  27  69 SE18      30.10F WCI  26
DANVILLE*      SUNNY     36  22  57 SE15      30.11F WCI  26
RANTOUL*       SUNNY     37  29  72 SE18G24   30.10F WCI  27
MATTOON        MOSUNNY   37  26  64 S15G24    30.10F WCI  28
PARIS*         MOSUNNY   36  25  64 SE15      30.15F WCI  27
$$

ILZ079-100>102-282200-
SOUTHWEST ILLINOIS

CITY           SKY/WX    TMP DP  RH WIND       PRES   REMARKS
ALTON          MOSUNNY   46  32  57 SE16      30.04F
BELLEVILLE     SUNNY     46  32  57 S13G22    30.06F
CAHOKIA*       SUNNY     48  32  53 SE17G24   30.04F
SPARTA*        SUNNY     45  31  58 S15G23    30.09F
$$

ILZ064>066-069>071-074>076-080>082-084>086-088>090-092>094-282200-
SOUTH-CENTRAL ILLINOIS

CITY           SKY/WX    TMP DP  RH WIND       PRES   REMARKS
CARBONDALE     MOSUNNY   46  30  53 S15       30.12F
CAIRO*         SUNNY     49  34  54 S7        30.16F
EFFINGHAM*     FAIR      42  26  53 SE15G23   30.13F
MARION         MOSUNNY   48  32  53 S14G20    30.14F
MT. VERNON     SUNNY     46  30  53 SE10      30.12F
CENTRALIA*     SUNNY     44  31  58 SE15G22   30.09F
SALEM*         SUNNY     45  32  59 S14       30.10F
METROPOLIS*    SUNNY     49  32  52 SE7       30.15F
$$

ILZ067-068-072-073-078-083-087-091-282200-
SOUTHEAST ILLINOIS

CITY           SKY/WX    TMP DP  RH WIND       PRES   REMARKS
LAWRENCEVILLE  SUNNY     42  25  50 SE18      30.19F
FLORA*         SUNNY     42  29  60 S17       30.14F
FAIRFIELD*     SUNNY     43  31  63 SE12      30.14F
HARRISBURG*    SUNNY     46  32  59 SE12      30.16F
ROBINSON*      SUNNY     40  23  52 SE16      30.19F
CARMI*         SUNNY     46  32  58 SE16G22   30.16F
$$

ABBREVIATIONS USED IN REMARKS
   TC - TEMPERATURE IN CELSIUS
  WCI - WIND CHILL INDEX
   HX - HEAT INDEX
  VSB - VISIBILITY
$$




USA.gov is the U.S. government's official web portal to all federal, state and local government web resources and services.